This is the latest recevied weather packets stored in our database for station/object KM4RT-13. If no packets are shown the sender has not sent any weather packets the latest 10 day(s).
| Time | Temp. | Humidity | Pressure | Rain* | Wind** | Luminosity | Snow |
|---|---|---|---|---|---|---|---|
| 1777551590 | 12.22° C | 77% | 1015 hPa | 0 mm | - | 72 W/m² | - |
| 1777551287 | 12.22° C | 78% | 1015 hPa | 0 mm | - | 71 W/m² | - |
| 1777550983 | 12.22° C | 78% | 1014.9 hPa | 0 mm | - | 73 W/m² | - |
| 1777550681 | 12.22° C | 79% | 1015 hPa | 0 mm | - | 83 W/m² | - |
| 1777550377 | 12.22° C | 80% | 1015 hPa | 0 mm | - | 69 W/m² | - |
| 1777550073 | 11.67° C | 80% | 1015 hPa | 0 mm | - | 56 W/m² | - |
| 1777549770 | 11.67° C | 80% | 1014.7 hPa | 0 mm | - | 54 W/m² | - |
| 1777549466 | 11.67° C | 81% | 1014.8 hPa | 0 mm | - | 37 W/m² | - |
| 1777549162 | 11.67° C | 81% | 1014.8 hPa | 0 mm | - | 32 W/m² | - |
| 1777548858 | 11.67° C | 82% | 1014.6 hPa | 0 mm | - | 28 W/m² | - |
| 1777548555 | 11.67° C | 82% | 1014.5 hPa | 0 mm | - | 21 W/m² | - |
| 1777548252 | 11.67° C | 82% | 1014.6 hPa | 0 mm | - | 14 W/m² | - |
| 1777547949 | 11.11° C | 82% | 1014.5 hPa | 0 mm | - | 10 W/m² | - |
| 1777547645 | 11.11° C | 83% | 1014.5 hPa | 0 mm | - | 7 W/m² | - |
| 1777547341 | 11.67° C | 82% | 1014.6 hPa | 0 mm | - | 4 W/m² | - |
| 1777547040 | 11.67° C | 82% | 1014.3 hPa | 0 mm | - | 2 W/m² | - |
| 1777546736 | 11.67° C | 81% | 1014.4 hPa | 0 mm | - | 1 W/m² | - |
| 1777546433 | 11.67° C | 81% | 1014.5 hPa | 0 mm | - | 0 W/m² | - |
| 1777546130 | 11.67° C | 82% | 1014.2 hPa | 0 mm | - | 0 W/m² | - |
| 1777545826 | 11.67° C | 82% | 1014.1 hPa | 0 mm | - | 0 W/m² | - |
| 1777545523 | 11.11° C | 83% | 1014.1 hPa | 0 mm | - | 0 W/m² | - |
| 1777545219 | 11.67° C | 82% | 1014.1 hPa | 0 mm | - | 0 W/m² | - |
| 1777544918 | 11.67° C | 81% | 1014.2 hPa | 0 mm | - | 0 W/m² | - |
| 1777544614 | 11.67° C | 80% | 1014.2 hPa | 0 mm | - | 0 W/m² | - |
| 1777544310 | 11.67° C | 80% | 1014.2 hPa | 0 mm | - | 0 W/m² | - |
* Rain latest hour (hover to see other rain measurements)
** Current wind speed in m/s (hover to see current wind gust speed)